[[{"header":{"parameterUnit":"m.s-1","parameterCategory":1,"la1":30.2992,"la2":30.254,"lo1":-89.0895,"lo2":-89.0443,"dy":0.0025,"dx":0.0025,"nx":19,"ny":19,"refTime":"2026-05-24T03:00:00:Z","depth":0,"parameterNumber":2,"parameterNumberName":"U-component_of_WINDS"},"data":[0,0,0,-1.5109,-1.5111,-1.5245,-1.5246,-1.5422,-1.5424,0,0,0,0,0,0,0,0,0,0,0,-1.5069,-1.507,-1.5108,-1.5112,-1.5245,-1.5246,-1.5422,-1.5424,0,0,0,0,0,0,0,0,0,0,0,-1.5069,-1.507,-1.5072,-1.5112,-1.5245,-1.5246,-1.5422,-1.532,0,0,0,0,0,0,0,0,0,0,-1.5189,-1.5152,-1.507,-1.5072,-1.5113,-1.5245,-1.5246,-1.5315,-1.5326,-1.5363,0,-1.5393,0,-1.5411,-1.5436,-1.5436,0,0,0,-1.5113,-1.5143,-1.5178,-1.5072,-1.5114,-1.5245,-1.5185,-1.5321,-1.5334,-1.5378,-1.5396,-1.5402,-1.5414,-1.5437,-1.5438,-1.564,-1.5641,0,0,-1.5105,-1.5094,-1.5169,-1.5186,-1.5162,-1.5181,-1.5189,-1.5329,-1.5349,-1.5396,-1.5406,-1.5417,-1.5438,-1.5439,-1.564,-1.5641,0,0,0,-1.5083,-1.5089,-1.5121,-1.5179,-1.5203,-1.5185,-1.5194,-1.5342,-1.5353,-1.5408,-1.5419,-1.5439,-1.5441,-1.5639,-1.564,-1.5671,0,0,0,-1.5079,-1.5076,-1.5118,-1.5113,-1.52,-1.5274,-1.5205,-1.5344,-1.536,-1.5418,-1.5439,-1.5443,-1.5638,-1.5639,-1.5668,-1.5689,0,0,0,-1.5061,-1.5074,-1.5093,-1.5112,-1.5168,-1.5271,-1.5291,-1.5347,-1.5367,-1.5437,-1.5444,-1.5637,-1.5639,-1.5666,-1.5684,-1.5737,0,0,0,-1.5039,-1.5122,-1.5094,-1.5191,-1.5167,-1.5289,-1.529,-1.5382,-1.5446,-1.544,-1.5638,-1.564,-1.5665,-1.5682,-1.5734,-1.5779,-1.5796,0,0,-1.5138,-1.5134,-1.5192,-1.517,-1.5294,-1.527,-1.54,-1.5471,-1.549,-1.559,-1.5595,-1.5669,-1.5684,-1.5737,-1.5901,-1.5914,0,0,0,-1.522,-1.5262,-1.5297,-1.5355,-1.5409,-1.5457,-1.5509,-1.5535,-1.562,-1.5538,-1.5704,-1.5713,-1.5745,-1.5766,-1.5778,-1.5805,-1.565,-1.5649,-1.5649,-1.5346,-1.5362,-1.5459,-1.5491,-1.5548,-1.5599,-1.5648,-1.5692,-1.5696,-1.5734,-1.5764,-1.5861,-1.5886,-1.5895,-1.5923,-1.579,-1.579,-1.579,-1.579,-1.5492,-1.5552,-1.5551,-1.5644,-1.5662,-1.5743,-1.5796,-1.5795,-1.5874,-1.5841,-1.5869,-1.583,-1.5909,-1.5935,-1.5793,-1.5792,-1.5792,-1.5792,-1.5792,-1.5574,-1.5606,-1.5634,-1.5719,-1.5783,-1.5815,-1.5889,-1.5904,-1.592,-1.5948,-1.598,-1.598,-1.598,-1.5962,-1.5963,-1.5963,-1.5963,-1.5963,-1.5964,-1.5649,-1.5679,-1.5738,-1.5801,-1.5839,-1.5892,-1.5945,-1.5984,-1.6033,-1.6038,-1.6038,-1.6037,-1.5914,-1.5882,-1.5969,-1.5968,-1.5967,-1.5967,-1.5966,-1.5789,-1.5759,-1.5849,-1.5887,-1.5962,-1.6025,-1.6042,-1.6122,-1.6157,-1.6194,-1.6186,-1.6093,-1.6091,-1.6082,-1.6055,-1.6182,-1.6182,-1.6182,-1.6182,-1.5857,-1.5857,-1.5952,-1.6012,-1.6073,-1.6097,-1.6202,-1.6243,-1.6283,-1.6306,-1.6291,-1.6257,-1.6247,-1.6251,-1.6238,-1.6214,-1.6378,-1.6379,-1.6379,-1.5944,-1.5949,-1.6033,-1.6067,-1.6127,-1.6178,-1.6276,-1.6348,-1.6387,-1.6387,-1.6325,-1.6317,-1.6263,-1.6245,-1.6242,-1.6222,-1.6177,0,0]},{"header":{"parameterUnit":"m.s-1","parameterCategory":1,"la1":30.2992,"la2":30.254,"lo1":-89.0895,"lo2":-89.0443,"dy":0.0025,"dx":0.0025,"nx":19,"ny":19,"refTime":"2026-05-24T03:00:00:Z","depth":0,"parameterNumber":3,"parameterNumberName":"V-component_of_WINDS"},"data":[0,0,0,2.5685,2.5691,2.5991,2.5992,2.6364,2.6367,0,0,0,0,0,0,0,0,0,0,0,2.5586,2.5588,2.5685,2.5692,2.5991,2.5992,2.6364,2.6367,0,0,0,0,0,0,0,0,0,0,0,2.5585,2.5587,2.559,2.5693,2.5991,2.5992,2.6363,2.6142,0,0,0,0,0,0,0,0,0,0,2.5854,2.575,2.5587,2.559,2.5695,2.599,2.5992,2.6132,2.6156,2.6223,0,2.6275,0,2.6327,2.6391,2.6392,0,0,0,2.5701,2.573,2.582,2.559,2.5697,2.599,2.5859,2.6145,2.6173,2.6254,2.6281,2.6295,2.6333,2.6393,2.6395,2.6738,2.6739,0,0,2.5685,2.5635,2.5801,2.5837,2.5785,2.5849,2.5868,2.6162,2.6189,2.6282,2.6304,2.6339,2.6396,2.6399,2.6737,2.6738,0,0,0,2.5631,2.5623,2.5706,2.5821,2.5875,2.5857,2.5879,2.6176,2.6207,2.6308,2.6343,2.6398,2.6402,2.6736,2.6738,2.6744,0,0,0,2.5622,2.5592,2.5698,2.5671,2.5869,2.6029,2.5886,2.6186,2.6221,2.6341,2.6398,2.6406,2.6735,2.6737,2.6741,2.6756,0,0,0,2.557,2.5586,2.5625,2.5668,2.5794,2.6025,2.6073,2.6195,2.6243,2.6393,2.6407,2.6734,2.6736,2.6738,2.6752,2.6831,0,0,0,2.5502,2.5629,2.5624,2.578,2.5791,2.6025,2.6072,2.625,2.638,2.64,2.6735,2.6737,2.6738,2.675,2.6827,2.6887,2.6907,0,0,2.5634,2.5643,2.5739,2.5743,2.5964,2.5983,2.6209,2.6377,2.644,2.6636,2.6645,2.6742,2.6752,2.683,2.7037,2.7052,0,0,0,2.5764,2.5832,2.5901,2.602,2.6148,2.6261,2.6399,2.6462,2.6631,2.6528,2.6794,2.6801,2.6849,2.688,2.6893,2.6938,2.6749,2.6749,2.6749,2.588,2.5949,2.6113,2.6218,2.6333,2.6473,2.6574,2.6683,2.6723,2.6784,2.6843,2.696,2.6994,2.7004,2.705,2.6881,2.6881,2.6881,2.6881,2.608,2.6187,2.6234,2.6408,2.6482,2.6632,2.6773,2.6796,2.6948,2.6922,2.6968,2.6932,2.7019,2.7063,2.6882,2.6882,2.6882,2.6882,2.6882,2.6164,2.6227,2.6298,2.6476,2.6606,2.6711,2.6853,2.6917,2.6979,2.7025,2.7094,2.7094,2.7102,2.7053,2.7053,2.7054,2.7054,2.7055,2.7055,2.6222,2.6302,2.6412,2.6557,2.6642,2.6761,2.6904,2.699,2.7103,2.7139,2.714,2.7173,2.7013,2.6971,2.7061,2.706,2.7059,2.7059,2.7058,2.6399,2.6368,2.6537,2.6621,2.6798,2.6924,2.7003,2.7173,2.7255,2.7323,2.7348,2.7219,2.7234,2.7224,2.719,2.7331,2.7331,2.7331,2.7331,2.6469,2.6481,2.6668,2.6798,2.6933,2.7021,2.7214,2.7327,2.744,2.7496,2.7485,2.7445,2.7432,2.7455,2.744,2.741,2.7604,2.7604,2.7604,2.6581,2.661,2.6759,2.6864,2.7007,2.713,2.7314,2.7465,2.7588,2.7617,2.754,2.7529,2.7466,2.7442,2.7468,2.7443,2.7388,0,0]}]]